[[{"header":{"parameterUnit":"m.s-1","parameterCategory":1,"la1":30.2991,"la2":30.254,"lo1":-89.0895,"lo2":-89.0444,"dy":0.0017,"dx":0.0017,"nx":28,"ny":28,"refTime":"2023-04-29T21:00:00:Z","depth":0,"parameterNumber":2,"parameterNumberName":"U-component_of_WINDS"},"data":[0,0,0,0,0,0,0,0,0,0,0,0,0,0,0,0,0,0,0,0,0,0,0,0,0,0,0,0,0,0,0,0,0,0,0,0,0,0,0,0,0,0,0,0,0,0,0,0,0,0,0,0,0,0,0,0,0,0,2.2339,2.234,0,2.2415,2.2416,2.2417,2.25,2.2501,2.2503,2.2504,2.2581,2.2582,2.2583,0,0,0,0,0,0,0,0,0,0,0,0,0,2.2268,2.2269,2.2339,2.234,2.2341,2.2415,2.2416,2.2417,2.25,2.2501,2.2503,2.2504,2.258,2.2582,2.2583,0,0,0,0,0,0,0,0,0,0,0,0,0,2.2317,2.2269,2.2339,2.2391,2.2397,2.2415,2.2416,2.2418,2.25,2.2501,2.2503,2.2505,2.258,2.2581,2.2583,2.2555,0,0,2.2587,2.2588,0,0,0,0,0,0,0,0,2.2314,2.2319,2.2383,2.2388,2.2394,2.245,2.2419,2.2464,2.2499,2.2461,2.2504,2.2506,2.2536,2.2541,2.2551,2.2559,2.2562,2.2587,2.2588,2.2589,2.2589,0,0,0,0,0,0,0,2.231,2.2316,2.2369,2.2384,2.2391,2.2412,2.2421,2.2428,2.2487,2.2464,2.247,2.2478,2.2539,2.255,2.2554,2.2563,2.2587,2.2588,2.2589,2.259,2.2556,2.2554,0,0,0,0,0,0,2.2299,2.2313,2.2367,2.2372,2.2358,2.2412,2.2422,2.243,2.2487,2.2498,2.2477,2.2482,2.2546,2.2552,2.2557,2.253,2.2589,2.259,2.2591,2.2558,2.2556,2.2554,0,0,0,0,0,0,2.2297,2.2303,2.2364,2.2344,2.2354,2.2411,2.242,2.2431,2.2441,2.2497,2.2508,2.2476,2.2548,2.2555,2.2556,2.2534,2.2591,2.2592,2.256,2.2557,2.2555,2.2476,0,0,0,0,0,0,2.2295,2.2302,2.2291,2.2343,2.2354,2.2361,2.2419,2.2431,2.2444,2.2451,2.2499,2.2509,2.255,2.2553,2.2557,2.2537,2.2593,2.2562,2.2559,2.2556,2.2481,2.2471,2.2463,0,0,0,0,0,2.2292,2.2265,2.229,2.2296,2.2342,2.236,2.2366,2.2414,2.2441,2.2432,2.2468,2.2508,2.2536,2.2553,2.2558,2.2538,2.2564,2.256,2.2556,2.2485,2.2473,2.2463,0,0,0,0,0,0,2.2208,2.2273,2.2301,2.2291,2.2319,2.2374,2.2363,2.2399,2.242,2.2426,2.2484,2.2495,2.2489,2.2514,2.2531,2.2516,2.2556,2.2553,2.25,2.2489,2.248,2.2474,2.2594,0,0,0,0,0,2.2188,2.2197,2.2253,2.2238,2.2251,2.2304,2.2314,2.2348,2.238,2.2392,2.2428,2.2458,2.2474,2.2483,2.25,2.2485,2.2498,2.2474,2.2465,2.2457,2.2454,2.2451,2.2441,2.2541,2.2541,2.2541,0,0,2.2148,2.2184,2.2186,2.2223,2.2249,2.2257,2.2314,2.2319,2.2327,2.2393,2.2397,2.2425,2.2462,2.2455,2.2454,2.2475,2.243,2.2452,2.2446,2.2447,2.2446,2.2436,2.2428,2.2538,2.2539,2.2539,0,0,2.2078,2.2106,2.2098,2.2123,2.2163,2.2199,2.2197,2.2247,2.2268,2.2273,2.2324,2.2334,2.2359,2.2384,2.24,2.2344,2.2381,2.2348,2.23,2.2296,2.2288,2.2282,2.2263,2.2256,2.2344,2.2344,2.2344,0,2.2022,2.2037,2.2089,2.2092,2.2108,2.217,2.2163,2.2185,2.2228,2.2238,2.2261,2.2297,2.2326,2.2328,2.2314,2.2324,2.2325,2.2342,2.2285,2.2279,2.2274,2.2257,2.2249,2.234,2.234,2.2341,2.2341,0,2.1967,2.1976,2.1965,2.2006,2.2021,2.2019,2.2072,2.208,2.2115,2.2148,2.2154,2.2192,2.2219,2.2223,2.2255,2.223,2.2242,2.2274,2.2315,2.2259,2.2244,2.2238,2.2334,2.2335,2.2336,2.2338,0,0,2.1845,2.1917,2.1912,2.1933,2.1982,2.1991,2.1993,2.202,2.2027,2.2055,2.206,2.2081,2.2113,2.2131,2.2168,2.2164,2.212,2.2198,2.22,2.2183,2.2096,2.2072,2.2063,2.2145,2.2144,2.2143,2.2094,0,2.1785,2.1792,2.184,2.1834,2.1844,2.1905,2.1907,2.1938,2.1971,2.1985,2.2021,2.2036,2.2076,2.2088,2.2087,2.2125,2.2103,2.2129,2.2151,2.2151,2.214,2.2055,2.2029,2.198,2.2088,2.2087,2.2086,0,2.1715,2.174,2.1734,2.1787,2.1793,2.1793,2.1824,2.1837,2.1875,2.1899,2.1921,2.1963,2.197,2.2009,2.2021,2.2037,2.205,2.207,2.2069,2.2073,2.2115,2.2058,2.1965,2.1958,2.2077,2.2078,2.2079,0,2.1628,2.166,2.1662,2.1678,2.1738,2.1738,2.1763,2.1802,2.1817,2.1844,2.1854,2.1882,2.1897,2.1918,2.1967,2.199,2.1974,2.2016,2.1996,2.1994,2.1989,2.1989,2.1898,2.1996,2.1996,2.1996,2.1996,0,2.1555,2.155,2.1624,2.1625,2.1622,2.1679,2.1674,2.1705,2.174,2.175,2.1804,2.1811,2.1875,2.1891,2.1929,2.1935,2.1941,2.1962,2.1972,2.1957,2.1954,2.1966,2.1971,2.1994,2.1994,2.1995,2.1995,0,2.1457,2.1506,2.1513,2.157,2.1585,2.158,2.1629,2.1634,2.1671,2.1682,2.1688,2.1746,2.1767,2.1818,2.1853,2.1879,2.1875,2.1893,2.1862,2.1869,2.1845,2.1847,2.1759,2.1751,2.1852,2.1851,2.1851,0,2.1408,2.1405,2.1463,2.1473,2.1497,2.1512,2.1528,2.1585,2.1599,2.1644,2.1643,2.1669,2.1692,2.1724,2.177,2.1798,2.1818,2.1785,2.1822,2.1808,2.1819,2.1818,2.1819,2.1776,2.1775,2.1774,2.1773,0,2.1315,2.1341,2.1361,2.1391,2.1408,2.1434,2.1463,2.1468,2.1533,2.1547,2.157,2.1588,2.1625,2.165,2.1686,2.1713,2.1754,2.1761,2.1758,2.1743,2.1725,2.1736,2.184,2.1763,2.1764,2.1765,2.1765,2.1765,2.1241,2.1243,2.1284,2.1306,2.1334,2.1361,2.1368,2.1407,2.1427,2.1461,2.1494,2.1514,2.1556,2.1607,2.1632,2.165,2.1671,2.1666,2.1665,2.1662,2.1657,2.1722,2.1657,2.1657,2.1657,2.1658,2.1658,0,2.1153,2.1183,2.1203,2.1242,2.126,2.1298,2.1333,2.1345,2.1362,2.1397,2.142,2.1448,2.1474,2.1523,2.1553,2.1558,2.1578,2.1565,2.1565,2.1571,2.1636,2.1636,2.1548,2.1548,2.1548,2.1548,2.1548,2.1548,2.1109,2.1114,2.1145,2.1166,2.1197,2.1217,2.1234,2.1259,2.1288,2.1316,2.1338,2.1371,2.1412,2.1447,2.1473,2.1487,2.1496,2.1477,2.1497,2.1556,2.1566,2.1576,2.1577,2.1478,2.1478,2.1431,2.1431,2.143]},{"header":{"parameterUnit":"m.s-1","parameterCategory":1,"la1":30.2991,"la2":30.254,"lo1":-89.0895,"lo2":-89.0444,"dy":0.0017,"dx":0.0017,"nx":28,"ny":28,"refTime":"2023-04-29T21:00:00:Z","depth":0,"parameterNumber":3,"parameterNumberName":"V-component_of_WINDS"},"data":[0,0,0,0,0,0,0,0,0,0,0,0,0,0,0,0,0,0,0,0,0,0,0,0,0,0,0,0,0,0,0,0,0,0,0,0,0,0,0,0,0,0,0,0,0,0,0,0,0,0,0,0,0,0,0,0,0,0,2.4573,2.4574,0,2.463,2.463,2.4631,2.4619,2.4618,2.4617,2.4616,2.4671,2.4673,2.4675,0,0,0,0,0,0,0,0,0,0,0,0,0,2.4451,2.4453,2.4573,2.4574,2.4575,2.463,2.463,2.4631,2.4619,2.4618,2.4617,2.4616,2.467,2.4673,2.4676,0,0,0,0,0,0,0,0,0,0,0,0,0,2.4505,2.4454,2.4573,2.4575,2.4576,2.4629,2.463,2.4631,2.462,2.4618,2.4617,2.4615,2.4669,2.4673,2.4676,2.4729,0,0,2.4687,2.4689,0,0,0,0,0,0,0,0,2.4502,2.451,2.4574,2.4575,2.4576,2.4616,2.4607,2.4664,2.462,2.4603,2.4616,2.4614,2.4654,2.4658,2.4672,2.4732,2.4734,2.4687,2.469,2.4691,2.4692,0,0,0,0,0,0,0,2.4498,2.4507,2.4595,2.4575,2.4577,2.4572,2.4578,2.4618,2.4636,2.4604,2.4604,2.4611,2.4654,2.4669,2.4673,2.4735,2.4687,2.4691,2.4693,2.4694,2.4838,2.4839,0,0,0,0,0,0,2.4494,2.4504,2.4594,2.4597,2.4535,2.4576,2.4582,2.4605,2.4636,2.4639,2.4612,2.461,2.4663,2.4669,2.4675,2.4737,2.4691,2.4695,2.4697,2.4836,2.4838,2.484,0,0,0,0,0,0,2.4492,2.4502,2.4591,2.455,2.4561,2.4579,2.4605,2.4607,2.4622,2.4642,2.4644,2.4624,2.4662,2.467,2.4715,2.4739,2.4696,2.47,2.4834,2.4837,2.4839,2.4863,0,0,0,0,0,0,2.4488,2.4501,2.4523,2.4551,2.4564,2.4632,2.4606,2.4609,2.4628,2.4626,2.4654,2.4657,2.4662,2.471,2.4719,2.4743,2.4702,2.4832,2.4835,2.4838,2.486,2.4866,2.4871,0,0,0,0,0,2.4484,2.4528,2.4524,2.4535,2.4591,2.4634,2.4641,2.4646,2.463,2.4651,2.4663,2.4656,2.4735,2.4715,2.4725,2.475,2.4831,2.4834,2.4838,2.4858,2.4865,2.4871,0,0,0,0,0,0,2.4502,2.4531,2.4528,2.4583,2.4606,2.4632,2.4658,2.4654,2.4682,2.4678,2.4683,2.469,2.4735,2.4748,2.4724,2.4802,2.478,2.4786,2.4792,2.4799,2.4804,2.4799,2.4705,0,0,0,0,0,2.4512,2.4545,2.4569,2.4615,2.4626,2.464,2.4659,2.4661,2.4685,2.4694,2.471,2.4732,2.4762,2.4781,2.481,2.4862,2.4866,2.4884,2.489,2.4894,2.4899,2.4924,2.4931,2.4852,2.4852,2.4852,0,0,2.4533,2.4554,2.4574,2.4619,2.4637,2.4669,2.4649,2.4684,2.4707,2.47,2.4743,2.4755,2.478,2.4828,2.485,2.484,2.4922,2.4899,2.4902,2.4904,2.4929,2.4936,2.4943,2.4854,2.4854,2.4854,0,0,2.4589,2.4609,2.4648,2.4666,2.4694,2.4702,2.4712,2.4738,2.4746,2.479,2.4783,2.481,2.4862,2.4879,2.4895,2.4954,2.4947,2.4963,2.4991,2.5016,2.5022,2.5027,2.5046,2.5053,2.4968,2.4968,2.4968,0,2.4611,2.4661,2.4668,2.4703,2.4722,2.4717,2.4754,2.4772,2.4807,2.4819,2.4807,2.487,2.4887,2.4938,2.4952,2.4966,2.4974,2.496,2.5021,2.5026,2.5032,2.5049,2.5056,2.497,2.497,2.4969,2.4969,0,2.4686,2.4721,2.4748,2.4783,2.4804,2.4841,2.4851,2.4872,2.4872,2.4881,2.4924,2.4944,2.4975,2.4988,2.4988,2.5038,2.503,2.502,2.4998,2.5041,2.5057,2.5064,2.4972,2.4972,2.4971,2.4971,0,0,2.4754,2.4791,2.4801,2.4815,2.4844,2.487,2.4905,2.4937,2.4953,2.4977,2.5005,2.5048,2.5038,2.5056,2.5058,2.508,2.5122,2.5066,2.5067,2.5074,2.5174,2.518,2.5188,2.5118,2.512,2.5121,2.5171,0,2.481,2.4873,2.4879,2.4935,2.4965,2.496,2.499,2.501,2.5019,2.5045,2.5055,2.5084,2.507,2.508,2.5102,2.5112,2.5142,2.5109,2.5142,2.5143,2.5134,2.5197,2.5205,2.5251,2.5178,2.5179,2.518,0,2.4884,2.491,2.4969,2.4992,2.5004,2.5032,2.5059,2.5085,2.5106,2.5111,2.513,2.5129,2.5163,2.5141,2.5186,2.5164,2.5177,2.5184,2.5186,2.5188,2.5163,2.5198,2.5267,2.5273,2.5191,2.519,2.5189,0,2.4924,2.4974,2.5015,2.5028,2.5056,2.5075,2.5087,2.5108,2.5125,2.5149,2.516,2.5187,2.5202,2.5222,2.5227,2.5211,2.5271,2.5251,2.5274,2.5274,2.5286,2.5285,2.5355,2.5298,2.5298,2.5298,2.5298,0,2.4984,2.502,2.5033,2.5058,2.5096,2.5102,2.514,2.5151,2.5169,2.5195,2.5192,2.5216,2.5222,2.5247,2.5251,2.5286,2.5293,2.5296,2.5297,2.5296,2.5295,2.5303,2.5299,2.53,2.53,2.5299,2.5299,0,2.5035,2.5046,2.5089,2.5113,2.5119,2.5146,2.5165,2.5188,2.5197,2.5229,2.5236,2.5249,2.5278,2.5285,2.5319,2.5322,2.5363,2.5361,2.5355,2.5355,2.5377,2.5374,2.5453,2.5463,2.5402,2.5403,2.5403,0,2.5072,2.5099,2.5125,2.5142,2.5155,2.5183,2.5201,2.5207,2.5225,2.5251,2.527,2.5298,2.532,2.5365,2.5377,2.5402,2.5399,2.5426,2.5403,2.54,2.5397,2.5394,2.5396,2.5429,2.543,2.543,2.5431,0,2.5135,2.5138,2.5164,2.5192,2.5213,2.5234,2.5255,2.5269,2.5278,2.5298,2.5327,2.5345,2.5379,2.5405,2.5431,2.5442,2.5437,2.5438,2.5444,2.5442,2.5437,2.5437,2.5364,2.5436,2.5435,2.5435,2.5435,2.5434,2.5178,2.5201,2.5222,2.525,2.5266,2.5285,2.5307,2.5318,2.5343,2.5372,2.5374,2.5404,2.5423,2.5457,2.5469,2.5492,2.5484,2.5494,2.5496,2.5497,2.5498,2.5435,2.5497,2.5496,2.5496,2.5496,2.5496,0,2.5239,2.5252,2.5278,2.5307,2.5328,2.5323,2.5345,2.5363,2.5391,2.5409,2.5431,2.5463,2.5489,2.5502,2.5527,2.5542,2.5541,2.5548,2.5546,2.5548,2.5505,2.5496,2.5549,2.5549,2.5549,2.5549,2.5549,2.5549,2.5273,2.531,2.5316,2.536,2.5373,2.5403,2.5416,2.5432,2.5447,2.5483,2.5504,2.5513,2.5529,2.5555,2.5577,2.558,2.5588,2.5597,2.5598,2.5557,2.5552,2.5546,2.5538,2.5599,2.5599,2.5639,2.564,2.564]}]]